Location: Norton
(51.3000°N, 0.8167°E)
Time: 02:52:22
(UTC+00:00)

Cosmos 2322 - Pass Details

Date: 03 March 2021
Orbit: 841 x 853 km, 71.0° (Epoch: 13 April)

Event Time Altitude Azimuth Distance (km) Brightness Sun altitude
Rises 19:44:14 0° 195° (SSW) 3,410 6.9 -19.9°
Reaches altitude 10° 19:46:42 10° 192° (SSW) 2,479 6.1 -20.3°
Maximum altitude 19:52:18 61° 114° (ESE) 970 3.7 -21.1°
Drops below altitude 10° 19:57:55 10° 35° (NE) 2,492 6.0 -21.9°
Sets 20:00:24 0° 32° (NNE) 3,431 6.7 -22.3°
